FENGYUN 1C DEB, 30139

Orbit data source: Space-Track

FENGYUN 1C DEB, 30139 is space debris in SSO originally from a launch on Mon, 10 May 1999 UTC launched from the Taiyaun Space Center, China (TSC). Fengyun 1C debris stems from the Chinese weather satellite Fengyun-1C, which was intentionally destroyed by a Chinese anti-satellite missile in 2007. This event dramatically increased the amount of space debris, with thousands of trackable fragments posing hazards to satellites and human spaceflight. The Fengyun 1C debris cloud has become a focal point in discussions about space sustainability and the need for international regulations to prevent the creation of new debris.

Loading next visibility...
Identifier
30139, 1999-025SU
Orbit
SSO
Country
Flag of CNCN / PRC
Related business
Manufacturer
Unknown
Mission
Spacecraft
Bus & Motor
Unknown
Mass
Unknown
Launch date (UTC)
1999-05-10 (27 years ago)
Launch vehicle
Unknown
Launch site
Taiyaun Space Center, China (TSC)
Object type
Payload
Rocket body
Debris
Shape & HBR
Unknown shape, 0.1 m
Radar Cross Section
Small (<0.1 m²)

Expand to show TLE details & history
Last TLE update: 2 days ago

TLE from 2 days ago
0 FENGYUN 1C DEB
1 30139U 99025SU  26252.75163459  .00001368  00000-0  81962-3 0  9995
2 30139  98.3575  79.9587 0128570 241.5403 177.3962 14.04517612    19
Epoch: 2026-09-09T18:02Z
TLE epoch observation values (Epoch: 2026-09-09T18:02:21.228Z)
Latitude
58.10008°
Longitude
166.99134°
Altitude
981.179 km
Speed
7.319 km/s
True Right ascension
04h 25m 30s
True Declination
57° 57' 01"
Sunlit
Object was in daylight at epoch
Visualization orbit readout
Latitude
Unknown
Longitude
Unknown
Altitude
Unknown
Speed
Unknown
Apparent Right ascension
Unknown
Apparent Declination
Unknown
Sunlit
N/A
Visualization observer readout
Local Sidereal Time
06:15:55
Azimuth
Unknown
Elevation
Unknown
Doppler factor
Unknown
Orbital elements
Apogee altitude
968.614 km
Perigee altitude
782.097 km
Semi-major axis
7,253.493 km
Eccentricity
0.01286
Inclination
98.3575°
RAAN
79.9587°
Arg. of periapsis
241.5403°
True anomaly
177.46207°
Mean anomaly
177.3962°
Eccentric anomaly
177.42924°
Mean motion
3.51336 °/min
Orbital period
102.47 mins
BSTAR
0.00081962
Loading maneuver chart data...
Computing Atmospheric mass density...
Loading historical data...
Loading historical data...
Loading historical data...
Loading historical data...
Loading historical data...
Loading historical data...
Loading historical data...

Documentation

Showing up to 5 results
|